Lancaster, CA

7:05 AM PST on February 27, 2017 (GMT -0800)
Gen Fox

Weather History for KWJF - January, 2013

Change the Weather History Date:

Saturday, January 26, 2013

  Actual Average Record
Temperature  
Mean Temperature 57 °F 46 °F  
Max Temperature 63 °F 59 °F 78 °F (1951)
Min Temperature 50 °F 32 °F 10 °F (1949)
Degree Days  
Heating Degree Days 8    
Month to date heating degree days 665  
Since 1 July heating degree days 1735  
Cooling Degree Days 0    
Month to date cooling degree days 0  
Year to date cooling degree days 0  
Growing Degree Days 6 (Base 50)    
Moisture  
Dew Point 46 °F    
Average Humidity 73    
Maximum Humidity 93    
Minimum Humidity 52    
Precipitation  
Precipitation 0.06 in 0.05 in 1.08 in (1956)
Month to date precipitation 0.40 1.24  
Year to date precipitation 0.40 1.24  
Since 1 July precipitation 0.56  
Snow  
Snow 0.00 in - 0.00 in (1999)
Month to date snowfall 0.0  
Since 1 July snowfall 0.0  
Snow Depth 0.00 in    
Sea Level Pressure  
Sea Level Pressure 29.96 in    
Wind  
Wind Speed 13 mph (West)    
Max Wind Speed 29 mph    
Max Gust Speed 33 mph    
Visibility 8 miles    
Events Rain    
T = Trace of Precipitation, MM = Missing Value Source: NWS Daily Summary

Daily Weather History Graph

Daily Weather History Graph

Search for Another Location

Airport or City:

Trip Planner

Search our weather history database for the weather conditions in past years. The results will help you decide how hot, cold, wet, or windy it might be!

Date:

Astronomy

Jan. 26, 2013 Rise Set
Actual Time 6:54 AM PST 5:16 PM PST
Civil Twilight 6:28 AM PST 5:43 PM PST
Nautical Twilight 5:57 AM PST 6:13 PM PST
Astronomical Twilight 5:27 AM PST 6:43 PM PST
Moon 5:13 PM PST (1/26) 6:17 AM PST (1/26)
Length of Visible Light 11h 15m
Length of Day
10h 21m
Full, 100% of the Moon is Illuminated
Jan 26
Full
Jan 26
Full
Feb 3
Last Quarter
Feb 9
New
Feb 17
First Quarter

Hourly Weather History & Observations

Time (PST) Temp. Dew Point Humidity Pressure Visibility Wind Dir Wind Speed Gust Speed Precip Events Conditions
12:24 AM 51.8 °F 48.2 °F 88% 30.03 in 4.0 mi Calm Calm - 0.01 in   Overcast
12:56 AM 50.0 °F 48.0 °F 93% 30.03 in 5.0 mi Calm Calm - 0.01 in   Overcast
1:56 AM 50.0 °F 48.0 °F 93% 30.02 in 5.0 mi Calm Calm - 0.00 in Rain Light Rain
2:04 AM 50.0 °F 48.2 °F 94% 30.01 in 4.0 mi WNW 3.5 mph - 0.01 in Rain Light Rain
2:56 AM 50.0 °F 48.0 °F 93% 30.01 in 5.0 mi Calm Calm - 0.04 in   Overcast
3:56 AM 51.1 °F 48.0 °F 89% 29.99 in 8.0 mi North 3.5 mph - N/A   Overcast
4:18 AM 50.0 °F 48.2 °F 94% 29.98 in 7.0 mi Calm Calm - N/A   Overcast
4:56 AM 50.0 °F 48.0 °F 93% 29.98 in 4.0 mi Calm Calm - N/A   Overcast
5:08 AM 50.0 °F 48.2 °F 94% 29.97 in 4.0 mi Calm Calm - N/A   Overcast
5:20 AM 51.8 °F 48.2 °F 88% 29.97 in 4.0 mi Calm Calm - N/A   Overcast
5:56 AM 50.0 °F 48.0 °F 93% 29.97 in 7.0 mi Calm Calm - N/A   Overcast
6:27 AM 51.8 °F 48.2 °F 88% 29.96 in 7.0 mi Calm Calm - N/A   Overcast
6:51 AM 50.0 °F 48.2 °F 94% 29.97 in 5.0 mi WNW 4.6 mph - N/A   Overcast
6:56 AM 50.0 °F 48.0 °F 93% 29.97 in 5.0 mi WNW 4.6 mph - N/A   Overcast
7:25 AM 51.8 °F 48.2 °F 88% 29.96 in 3.0 mi West 3.5 mph - N/A   Overcast
7:33 AM 51.8 °F 48.2 °F 88% 29.96 in 5.0 mi West 3.5 mph - N/A   Overcast
7:56 AM 51.1 °F 48.9 °F 92% 29.97 in 10.0 mi SW 3.5 mph - N/A   Overcast
8:28 AM 51.8 °F 48.2 °F 88% 29.97 in 10.0 mi SSW 4.6 mph - N/A   Mostly Cloudy
8:56 AM 53.1 °F 48.9 °F 86% 29.97 in 10.0 mi SSW 4.6 mph - N/A   Overcast
9:56 AM 55.0 °F 50.0 °F 83% 29.97 in 10.0 mi SSE 5.8 mph - N/A   Scattered Clouds
10:56 AM 57.9 °F 48.0 °F 70% 29.96 in 10.0 mi Variable 3.5 mph - 0.01 in   Partly Cloudy
11:16 AM 59.0 °F 48.2 °F 67% 29.95 in 10.0 mi South 3.5 mph - N/A   Mostly Cloudy
11:24 AM 60.8 °F 48.2 °F 63% 29.95 in 10.0 mi Variable 6.9 mph - N/A   Mostly Cloudy
11:56 AM 61.0 °F 48.0 °F 62% 29.93 in 10.0 mi West 18.4 mph - N/A   Partly Cloudy
12:56 PM 62.1 °F 46.9 °F 58% 29.91 in 10.0 mi West 21.9 mph - N/A   Clear
1:56 PM 62.1 °F 45.0 °F 53% 29.90 in 10.0 mi West 25.3 mph - N/A   Clear
2:56 PM 61.0 °F 45.0 °F 56% 29.90 in 10.0 mi West 25.3 mph 31.1 mph N/A   Clear
3:56 PM 59.0 °F 45.0 °F 60% 29.90 in 10.0 mi West 20.7 mph - N/A   Clear
4:56 PM 55.9 °F 44.1 °F 64% 29.91 in 10.0 mi West 21.9 mph 31.1 mph N/A   Mostly Cloudy
5:56 PM 53.1 °F 43.0 °F 69% 29.93 in 10.0 mi West 17.3 mph 24.2 mph N/A   Clear
6:56 PM 53.1 °F 43.0 °F 69% 29.94 in 10.0 mi West 23.0 mph 28.8 mph N/A   Scattered Clouds
7:07 PM 53.6 °F 42.8 °F 67% 29.94 in 10.0 mi West 21.9 mph - N/A   Mostly Cloudy
7:15 PM 53.6 °F 42.8 °F 67% 29.94 in 10.0 mi West 19.6 mph 29.9 mph N/A   Scattered Clouds
7:56 PM 52.0 °F 43.0 °F 71% 29.95 in 10.0 mi West 16.1 mph - N/A   Scattered Clouds
8:06 PM 51.8 °F 42.8 °F 71% 29.95 in 10.0 mi West 16.1 mph - N/A   Mostly Cloudy
8:13 PM 51.8 °F 42.8 °F 71% 29.95 in 10.0 mi West 17.3 mph - N/A   Scattered Clouds
8:35 PM 51.8 °F 42.8 °F 71% 29.95 in 10.0 mi West 18.4 mph - N/A   Mostly Cloudy
8:56 PM 51.1 °F 42.1 °F 71% 29.95 in 10.0 mi West 18.4 mph - N/A   Scattered Clouds
9:42 PM 51.8 °F 41.0 °F 67% 29.96 in 10.0 mi West 16.1 mph - N/A   Mostly Cloudy
9:56 PM 51.1 °F 41.0 °F 68% 29.96 in 10.0 mi West 16.1 mph - N/A   Mostly Cloudy
10:11 PM 50.0 °F 41.0 °F 71% 29.96 in 10.0 mi West 15.0 mph - N/A   Scattered Clouds
10:56 PM 52.0 °F 39.9 °F 63% 29.96 in 10.0 mi West 13.8 mph - N/A   Overcast
11:42 PM 51.8 °F 39.2 °F 62% 29.96 in 10.0 mi West 16.1 mph - N/A   Scattered Clouds
11:56 PM 51.1 °F 39.9 °F 66% 29.95 in 10.0 mi West 16.1 mph - N/A   Partly Cloudy